星链-2358 (STARLINK-2358 )

导读

STARLINK-2358是美国星链计划的低轨通信卫星,于2021年3月14日发射入轨,属于SpaceX打造的星链星座组网卫星。该卫星旨在为全球提供高速低延迟互联网覆盖,依托批量发射组网的模式,完善星链星座全球通信服务能力,服务民用、商业等多元应用场景。

基本信息
目录编号:
47898
目录名称:
STARLINK-2358
国际标识:
2021-021AQ
轨道中心:
EARTH
卫星名称:
星链-2358
卫星全名:
星链-2358 (STARLINK-2358 )
卫星状态:
在轨 (已飞行2000 天)
发射日期:
2021-03-14 UTC
国别 :
美国 (US)
星等 :
--
轨道信息
数据来源 国际轨道数据
星历时间: 2026-09-04T02:38:17+0800
11小时前
查看轨道信息
半长轴: 6848.86km
偏心率: 0.0001118
轨道倾角: 53.158°
近地点辐角 101.249°
升交点赤经 159.333°
平近点角 258.864°
近地点: 469.957km
远地点: 471.489km
周期: 94.013分钟
每日圈数: 15.317059
详细信息
固有亮度:
5
最大亮度:
2.5
卫星平台:
Starlink V1.0
覆盖范围:
全球
运营商:
太空探索技术公司
运营商所在国:
美国
制造商(研发单位):
太空探索技术公司
制造商所在国:
美国
使用方式:
暂无
卫星简介
星链(Starlink)计划是由太空探索技术公司(SpaceX)提出的一个巨型低轨卫星互联网星座项目,计划在2019年至2024年间在太空搭建由约1.2万颗卫星组成的“星链”网络,其中1584颗将部署在地球上空550千米处的近地轨道,并从2020年开始工作。该卫星仍在工作。
2D轨道图
3D轨道图
轨道高度分析图
轨道倾角分析图
轨道综合分析图
查看轨道综合分析图
交会数据列表
事件ID 空间交会对象 最接近时刻(TCA) 交会距离 交会风险概率(CRP) 交会风险指数(CRI) 操作
CDM_260827-201204-789806-542522
2026-08-27T
20:12:07+0000
0.945 km
远距离
1.253608E-5 中风险 0.57
CDM_260901-165704-789806-971921
2026-09-01T
16:57:01+0000
2.817 km
极远距离
1.327872E-6 低风险 0.37